Change the Weather History Date:

Sunday, July 14, 2013

  Actual Average Record
Temperature  
Mean Temperature 74 °F -  
Max Temperature 84 °F 80 °F 87 °F (2014)
Min Temperature 64 °F 65 °F 62 °F (1998)
Cooling Degree Days 9    
Growing Degree Days 24 (Base 50)    
Moisture  
Dew Point 64 °F    
Average Humidity 76    
Maximum Humidity 94    
Minimum Humidity 49    
Precipitation  
Precipitation 0.08 in 0.30 in - ()
Sea Level Pressure  
Sea Level Pressure 29.94 in    
Wind  
Wind Speed 6 mph ()    
Max Wind Speed 20 mph    
Max Gust Speed -    
Visibility 8.3 miles    
Events Rain    
Averages and records for this station are not official NWS values.
T = Trace of Precipitation, MM = Missing Value Source: Averaged Metar Reports

Daily Weather History Graph

Daily Weather History Graph

Search for Another Location

Airport or City:

Trip Planner

Search our weather history database for the weather conditions in past years. The results will help you decide how hot, cold, wet, or windy it might be!

Date:

Astronomy

Jul. 14, 2013 Rise Set
Actual Time 5:23 AM CST 6:02 PM CST
Civil Twilight 5:00 AM CST 6:25 PM CST
Nautical Twilight 4:33 AM CST 6:51 PM CST
Astronomical Twilight 4:06 AM CST 7:18 PM CST
Moon 10:22 AM CST (7/14) 10:36 PM CST (7/14)
Length of Visible Light 13h 24m
Length of Day
12h 39m
Waxing Crescent, 35% of the Moon is Illuminated
Jul 14
Waxing Crescent
Jul 15
First Quarter
Jul 22
Full
Jul 29
Last Quarter
Aug 6
New

Hourly Weather History & Observations

Time (CST) Temp. Heat Index Dew Point Humidity Pressure Visibility Wind Dir Wind Speed Gust Speed Precip Events Conditions
12:00 AM 66 °F - 62 °F 83% 29.86 in 12 mi NE 11.2 mph - -  
12:00 AM 66.2 °F - 62.6 °F 88% 30.01 in - NE 5.8 mph - N/A   Clear
1:00 AM 66.2 °F - 59.0 °F 78% 30.00 in - ENE 3.5 mph - N/A   Clear
2:00 AM 66.2 °F - 59.0 °F 78% 29.98 in - NE 9.2 mph - N/A   Clear
3:00 AM 67 °F - 59 °F 69% 29.83 in 12 mi ENE 11.2 mph - -  
3:00 AM 66.2 °F - 59.0 °F 78% 29.97 in - ENE 5.8 mph - N/A   Clear
4:00 AM 66.2 °F - 59.0 °F 78% 29.95 in - East 5.8 mph - N/A   Clear
5:00 AM 68.0 °F - 59.0 °F 73% 29.97 in - SE 6.9 mph - N/A   Clear
6:00 AM 65 °F - 58 °F 73% 29.83 in 12 mi ENE 4.6 mph - -   Clear
6:00 AM 66.2 °F - 59.0 °F 78% 29.96 in - ENE 4.6 mph - N/A   Clear
7:00 AM 69.8 °F - 60.8 °F 73% 30.01 in - West 2.3 mph - N/A   Clear
8:00 AM 73.4 °F - 62.6 °F 69% 30.02 in - NW 4.6 mph - N/A   Clear
9:00 AM 77 °F - 61 °F 49% 29.84 in 12 mi West 8.9 mph - -   Clear
9:00 AM 77.0 °F - 60.8 °F 57% 30.00 in - West 4.6 mph - N/A   Clear
10:00 AM - - - N/A% 30.00 in 6.2 mi SSW 4.6 mph - N/A   Scattered Clouds
11:00 AM 78.8 °F - 66.2 °F 65% 30.00 in 6.2 mi SW 6.9 mph - N/A   Scattered Clouds
12:00 PM 79 °F - 66 °F 56% 29.83 in 12 mi WSW 20.1 mph - -   Partly Cloudy
12:00 PM 78.8 °F - 66.2 °F 65% 29.98 in 6.2 mi SW 9.2 mph - N/A   Scattered Clouds
2:00 PM 84.2 °F 86.6 °F 66.2 °F 55% 29.95 in 6.2 mi WNW 3.5 mph - N/A   Scattered Clouds
3:00 PM 81 °F - 69 °F 58% 29.76 in 12 mi WSW 10.4 mph - -   Partly Cloudy
3:00 PM 80.6 °F 83.2 °F 68.0 °F 65% 29.92 in 6.2 mi WSW 10.4 mph - N/A   Scattered Clouds
4:00 PM 73.4 °F - 68.0 °F 83% 29.93 in 6.2 mi WSW 11.5 mph - N/A Rain Light Rain
4:20 PM 73.4 °F - 69.8 °F 88% 29.93 in 5.0 mi WSW 9.2 mph - N/A Rain Light Rain Showers
5:00 PM 71.6 °F - 69.8 °F 94% 29.95 in 6.2 mi West 8.1 mph - N/A   Mostly Cloudy
6:00 PM 71 °F - 69 °F 89% 29.82 in 12 mi WNW 3.5 mph - -   Partly Cloudy
6:00 PM 71.6 °F - 68.0 °F 88% 29.96 in 6.2 mi WNW 3.5 mph - N/A   Mostly Cloudy
7:00 PM 69.8 °F - 68.0 °F 94% 29.97 in 6.2 mi WNW 4.6 mph - N/A   Mostly Cloudy
8:00 PM 69.8 °F - 68.0 °F 94% 20.07 in 6.2 mi NNE 2.3 mph - N/A   Mostly Cloudy
9:00 PM 70 °F - 65 °F 78% 29.83 in 12 mi South 4.5 mph - -   Scattered Clouds
9:00 PM 69.8 °F - 64.4 °F 83% 29.97 in 6.2 mi South 2.3 mph - N/A   Scattered Clouds
10:00 PM 68.0 °F - 66.2 °F 94% 29.99 in 6.2 mi North 3.5 mph - N/A   Scattered Clouds
11:00 PM 71.6 °F - 60.8 °F 69% 29.98 in 6.2 mi East 10.4 mph - N/A   Scattered Clouds